Probability
3 3 6 3 3 6 10 6 6 6 6 6 3 3 0 0 0 0 0 0 0 0 0 0 0 0 0 0 0 0 0 0 0 0 0 0 0 0 0 0 0 0 0
0 3 3 0 3 6 3 6 3 6 6 6 3 3 0 0 0 0 0 0 0 0 0 0 0 0 0 0 0 0 0 0 0 0 0 0 0 0 0 0 0 0 0
0 0 3 3 0 3 3 0 0 0 3 0 3 0 0 0 0 0 0 0 0 0 0 0 0 0 0 0 0 0 0 0 0 0 0 0 0 0 0 0 0 0 0
0 0 0 3 0 0 0 0 3 0 0 0 0 0 0 0 0 0 0 0 0 0 0 0 0 0 0 0 0 0 0 0 0 0 0 0 0 0 0 0 0 0 0
0 0 0 3 0 0 0 0 0 0 0 0 0 0 0 0 0 0 0 0 0 0 0 0 0 0 0 0 0 0 0 0 0 0 0 0 0 0 0 0 0 0 0
0 0 0 0 0 0 0 0 0 0 0 0 0 0 0 0 0 0 0 0 0 0 0 0 0 0 0 0 0 0 0 0 0 0 0 0 0 0 0 0 0 0 0
0 0 0 0 0 0 0 0 0 0 0 0 0 0 0 0 0 0 0 0 0 0 0 0 0 0 0 0 0 0 0 0 0 0 0 0 0 0 0 0 0 0 0
0 0 0 0 0 0 0 0 0 0 0 0 0 0 0 0 0 0 0 0 0 0 0 0 0 0 0 0 0 0 0 0 0 0 0 0 0 0 0 0 0 0 0
0 0 0 0 0 0 0 0 0 0 0 0 0 0 0 0 0 0 0 0 0 0 0 0 0 0 0 0 0 0 0 0 0 0 0 0 0 0 0 0 0 0 0
0 0 0 0 0 0 0 0 0 0 0 0 0 0 0 0 0 0 0 0 0 0 0 0 0 0 0 0 0 0 0 0 0 0 0 0 0 0 0 0 0 0 0
0 0 0 0 0 0 0 0 0 0 0 0 0 0 0 0 0 0 0 0 0 0 0 0 0 0 0 0 0 0 0 0 0 0 0 0 0 0 0 0 0 0 0
0 0 0 0 0 0 0 0 0 0 0 0 0 0 0 0 0 0 0 0 0 0 0 0 0 0 0 0 0 0 0 0 0 0 0 0 0 0 0 0 0 0 0
0 0 0 0 0 0 0 0 0 0 0 0 0 0 0 0 0 0 0 0 0 0 0 0 0 0 0 0 0 0 0 0 0 0 0 0 0 0 0 0 0 0 0
0 0 0 0 0 0 0 0 0 0 0 0 0 0 0 0 0 0 0 0 0 0 0 0 0 0 0 0 0 0 0 0 0 0 0 0 0 0 0 0 0 0 0
0 0 0 0 0 0 0 0 0 0 0 0 0 0 0 0 0 0 0 0 0 0 0 0 0 0 0 0 0 0 0 0 0 0 0 0 0 0 0 0 0 0 0
0 0 0 0 0 0 0 0 0 0 0 0 0 0 0 0 0 0 0 0 0 0 0 0 0 0 0 0 0 0 0 0 0 0 0 0 0 0 0 0 0 0 0
0 0 0 0 0 0 0 0 0 0 0 0 0 0 0 0 0 0 0 0 0 0 0 0 0 0 0 0 0 0 0 0 0 0 0 0 0 0 0 0 0 0 0
0 0 0 0 0 0 0 0 0 0 0 0 0 0 0 0 0 0 0 0 0 0 0 0 0 0 0 0 0 0 0 0 0 0 0 0 0 0 0 0 0 0 0
0 0 0 0 0 0 0 0 0 0 0 0 0 0 0 0 0 0 0 0 0 0 0 0 0 0 0 0 0 0 0 0 0 0 0 0 0 0 0 0 0 0 0
0 0 0 0 0 0 0 0 0 0 0 0 0 0 0 0 0 0 0 0 0 0 0 0 0 0 0 0 0 0 0 0 0 0 0 0 0 0 0 0 0 0 0
0 0 0 0 0 0 0 0 0 0 0 0 0 0 0 0 0 0 0 0 0 0 0 0 0 0 0 0 0 0 0 0 0 0 0 0 0 0 0 0 0 0 0
0 0 0 0 0 0 0 0 0 0 0 0 0 0 0 0 0 0 0 0 0 0 0 0 0 0 0 0 0 0 0 0 0 0 0 0 0 0 0 0 0 0 0
0 0 0 0 0 0 0 0 0 0 0 0 0 0 0 0 0 0 0 0 0 0 0 0 0 0 0 0 0 0 0 0 0 0 0 0 0 0 0 0 0 0 0
0 0 0 0 0 0 0 0 0 0 0 0 0 0 0 0 0 0 0 0 0 0 0 0 0 0 0 0 0 0 0 0 0 0 0 0 0 0 0 0 0 0 0
0 0 0 0 0 0 0 0 0 0 0 0 0 0 0 0 0 0 0 0 0 0 0 0 0 0 0 0 0 0 0 0 0 0 0 0 0 0 0 0 0 0 0
0 0 0 0 0 0 0 0 0 0 0 0 0 0 0 0 0 0 0 0 0 0 0 0 0 0 0 0 0 0 0 0 0 0 0 0 0 0 0 0 0 0 0
Height
5736 5742 5748 5754 5759 5764 5769 5773 5777 5781 5784 5788 5791 5794 5797 5799 5802 5804 5806 5808 5810 5811 5813 5814 5815 5816 5816 5817 5817 5817 5817 5817 5816 5816 5815 5814 5813 5812 5810 5809 5807 5806 5804
5727 5733 5739 5745 5750 5755 5760 5765 5769 5773 5777 5781 5784 5786 5789 5792 5794 5796 5798 5800 5802 5803 5805 5806 5807 5808 5809 5810 5810 5810 5810 5810 5809 5809 5808 5807 5807 5805 5803 5802 5800 5798 5796
5717 5723 5729 5735 5741 5746 5751 5756 5761 5765 5769 5772 5775 5778 5781 5783 5786 5789 5790 5792 5794 5796 5797 5799 5800 5801 5802 5802 5802 5803 5803 5802 5802 5801 5800 5800 5799 5798 5796 5794 5792 5790 5788
5708 5714 5720 5726 5732 5737 5742 5747 5751 5756 5759 5763 5766 5770 5773 5775 5778 5780 5782 5784 5786 5788 5789 5791 5792 5793 5794 5794 5794 5795 5794 5794 5794 5793 5792 5791 5790 5789 5788 5787 5784 5782 5779
5699 5705 5710 5716 5722 5727 5732 5737 5742 5746 5750 5754 5758 5761 5764 5766 5769 5771 5774 5776 5777 5779 5781 5782 5783 5784 5785 5786 5786 5786 5786 5786 5785 5785 5784 5783 5781 5780 5779 5778 5776 5773 5771
5690 5695 5701 5707 5712 5717 5722 5727 5732 5737 5741 5745 5748 5752 5755 5757 5760 5763 5765 5767 5768 5770 5772 5773 5774 5775 5776 5777 5777 5777 5777 5777 5776 5776 5775 5774 5773 5771 5769 5768 5767 5765 5762
5681 5686 5691 5697 5702 5708 5713 5718 5722 5727 5732 5735 5739 5742 5745 5748 5751 5754 5756 5758 5760 5762 5763 5764 5765 5766 5767 5768 5768 5769 5768 5768 5767 5767 5766 5764 5763 5762 5760 5759 5757 5755 5753
5671 5677 5682 5687 5692 5697 5702 5707 5712 5717 5721 5725 5729 5733 5736 5739 5741 5744 5746 5749 5751 5752 5754 5755 5756 5757 5758 5759 5759 5759 5759 5759 5758 5757 5756 5755 5754 5752 5750 5749 5747 5745 5744
5664 5668 5673 5677 5682 5687 5692 5697 5702 5707 5711 5715 5719 5723 5726 5729 5732 5734 5737 5739 5741 5742 5744 5746 5747 5748 5748 5749 5750 5750 5750 5749 5748 5748 5746 5745 5744 5742 5740 5738 5736 5734 5732
5656 5660 5664 5668 5672 5676 5681 5686 5690 5695 5700 5704 5708 5712 5715 5718 5721 5724 5726 5729 5730 5732 5734 5736 5737 5738 5738 5739 5740 5740 5740 5739 5738 5738 5737 5735 5733 5732 5729 5727 5725 5722 5720
5648 5652 5656 5660 5663 5667 5671 5675 5680 5684 5689 5693 5697 5701 5704 5707 5710 5713 5716 5718 5720 5722 5724 5725 5726 5727 5728 5729 5729 5729 5729 5729 5728 5727 5726 5725 5723 5721 5719 5716 5714 5711 5708
5640 5644 5647 5650 5654 5657 5661 5665 5670 5674 5678 5682 5686 5689 5692 5696 5699 5702 5705 5707 5710 5712 5713 5715 5716 5717 5718 5718 5719 5719 5719 5718 5718 5717 5716 5714 5712 5710 5708 5705 5703 5700 5697
5632 5635 5638 5641 5644 5648 5652 5655 5659 5663 5667 5670 5674 5678 5681 5685 5688 5691 5694 5696 5698 5701 5702 5704 5705 5706 5707 5707 5708 5708 5708 5707 5707 5706 5705 5703 5701 5699 5697 5694 5691 5688 5685
5623 5626 5629 5632 5635 5638 5641 5645 5649 5652 5656 5659 5663 5667 5670 5674 5677 5680 5682 5685 5687 5689 5691 5693 5694 5695 5695 5696 5696 5696 5696 5696 5695 5694 5693 5692 5690 5688 5686 5683 5680 5676 5673
5614 5616 5619 5622 5625 5628 5631 5634 5637 5641 5645 5648 5652 5656 5659 5663 5666 5669 5671 5674 5676 5678 5680 5681 5682 5683 5684 5684 5685 5685 5685 5685 5684 5683 5682 5680 5678 5676 5674 5671 5667 5664 5660
5605 5607 5609 5612 5615 5618 5620 5623 5627 5630 5634 5637 5641 5645 5649 5652 5654 5657 5660 5662 5664 5666 5668 5669 5671 5672 5672 5673 5673 5673 5673 5673 5672 5671 5670 5668 5666 5664 5661 5658 5655 5651 5648
5596 5598 5600 5602 5605 5607 5610 5613 5616 5620 5623 5627 5630 5634 5637 5640 5643 5646 5649 5651 5653 5654 5656 5657 5659 5660 5660 5661 5661 5661 5661 5661 5660 5659 5658 5656 5654 5651 5649 5646 5642 5639 5635
5587 5588 5590 5593 5595 5598 5600 5603 5606 5610 5613 5616 5619 5623 5626 5629 5632 5634 5636 5639 5641 5643 5644 5646 5647 5648 5648 5649 5649 5649 5649 5649 5648 5647 5645 5644 5641 5639 5636 5633 5630 5627 5623
5579 5580 5581 5583 5585 5588 5590 5593 5596 5599 5602 5605 5608 5611 5614 5617 5620 5622 5624 5626 5629 5630 5632 5633 5635 5635 5636 5636 5637 5636 5636 5636 5635 5634 5632 5631 5629 5626 5623 5620 5618 5614 5610
5571 5571 5572 5574 5575 5577 5579 5582 5585 5588 5591 5594 5597 5600 5603 5605 5608 5610 5612 5614 5616 5618 5619 5621 5622 5623 5624 5624 5624 5624 5624 5623 5623 5621 5619 5617 5615 5612 5609 5607 5604 5601 5598
5562 5563 5564 5565 5566 5567 5570 5572 5575 5577 5580 5583 5585 5588 5591 5593 5596 5598 5600 5602 5604 5606 5607 5609 5610 5611 5611 5611 5611 5611 5611 5610 5610 5608 5607 5604 5601 5599 5596 5594 5591 5588 5585
5554 5554 5555 5556 5556 5558 5560 5563 5565 5567 5569 5572 5574 5577 5579 5581 5583 5585 5587 5589 5591 5593 5595 5596 5597 5598 5598 5599 5598 5598 5598 5597 5596 5595 5594 5591 5588 5586 5584 5581 5578 5575 5572
5546 5546 5546 5547 5547 5548 5550 5553 5555 5557 5559 5561 5563 5565 5567 5569 5571 5573 5575 5577 5579 5580 5582 5583 5585 5585 5586 5586 5586 5585 5585 5584 5583 5582 5580 5578 5576 5573 5571 5568 5565 5562 5559
5537 5537 5537 5538 5539 5539 5541 5542 5544 5546 5548 5550 5552 5554 5556 5558 5560 5561 5563 5565 5566 5568 5569 5570 5572 5573 5573 5573 5573 5572 5572 5571 5570 5568 5567 5565 5563 5561 5558 5556 5553 5550 5547
5529 5528 5528 5529 5529 5530 5531 5533 5534 5536 5538 5540 5541 5543 5545 5547 5548 5550 5551 5552 5554 5555 5557 5558 5559 5560 5561 5560 5560 5560 5559 5558 5557 5555 5554 5552 5550 5548 5546 5543 5540 5537 5534
5520 5520 5520 5520 5520 5521 5522 5523 5524 5526 5527 5529 5531 5533 5534 5536 5537 5538 5540 5540 5542 5543 5544 5546 5547 5547 5548 5548 5547 5547 5546 5545 5544 5542 5541 5540 5538 5536 5533 5531 5528 5525 5522
Wind_Speed
47 47 46 46 45 44 43 42 41 40 40 39 38 37 37 37 36 35 35 35 34 33 32 32 32 31 30 30 30 31 31 31 32 32 32 32 32 32 32 32 32 33 34
47 48 47 47 46 45 44 43 42 42 41 40 39 39 39 38 37 37 37 36 35 34 34 33 32 32 32 32 32 32 32 33 33 33 33 33 33 34 34 34 34 34 35
47 48 49 48 47 47 46 45 44 43 42 42 41 41 40 39 38 38 38 38 36 36 35 34 34 34 33 33 34 34 33 33 34 34 34 34 34 35 35 36 36 37 37
46 47 48 49 48 48 47 46 46 45 44 44 42 41 40 39 39 39 40 40 39 37 36 36 36 36 36 35 35 35 35 35 35 35 35 36 36 36 36 37 38 39 39
45 46 47 48 49 49 48 47 47 46 45 44 43 42 42 41 40 40 40 40 39 38 37 37 37 37 37 37 37 37 37 36 36 36 37 37 38 38 38 38 39 40 41
45 45 46 48 49 50 50 49 48 47 47 46 45 44 43 43 42 41 40 40 39 39 39 39 39 38 38 38 38 38 38 38 38 38 39 39 39 39 40 40 40 41 42
44 45 46 47 49 50 50 50 49 48 48 47 46 45 45 44 44 42 42 41 40 40 41 40 40 40 39 39 38 38 38 38 39 39 40 40 40 41 42 42 42 42 43
42 44 45 45 47 49 51 51 50 49 48 48 48 47 46 46 45 44 43 42 42 42 42 42 41 41 40 40 39 39 39 39 40 40 41 41 41 42 43 44 44 44 44
40 41 43 44 45 48 50 50 50 50 49 49 49 48 48 48 47 46 45 44 43 43 42 42 42 42 41 41 40 40 41 41 41 41 42 42 43 44 44 45 45 46 45
39 39 41 43 45 46 48 49 51 51 50 50 49 49 49 49 49 48 46 46 45 45 44 43 42 42 42 42 42 42 42 42 43 42 43 43 44 44 45 45 46 46 47
39 38 39 41 43 45 47 48 49 50 50 50 50 50 50 50 49 48 48 47 47 46 45 45 44 44 43 43 43 44 44 44 44 43 44 44 44 45 45 45 46 47 48
38 39 39 40 42 44 45 48 48 49 50 50 50 51 51 50 50 49 48 48 48 47 46 47 46 46 45 45 45 45 45 44 44 44 44 44 44 45 46 46 47 47 48
38 39 39 40 42 43 45 46 47 48 49 50 51 50 51 50 50 49 50 49 48 48 47 48 47 47 47 47 47 46 46 45 45 45 45 45 45 45 47 47 48 49 49
36 38 39 40 41 42 44 45 46 48 48 49 50 51 51 50 49 49 50 49 50 49 49 49 48 47 47 48 48 47 46 46 45 44 45 46 46 47 47 48 49 49 49
36 37 39 40 41 42 44 45 47 48 48 48 48 50 50 50 50 49 49 49 50 50 48 48 48 48 48 47 46 47 46 46 45 45 45 46 47 48 49 49 49 50 50
36 37 39 39 40 41 42 43 45 46 48 49 48 48 48 49 50 49 49 49 49 49 49 49 48 48 48 47 47 47 47 47 46 47 47 47 47 48 49 50 50 50 50
35 37 38 39 40 41 42 43 45 46 47 48 49 49 49 50 51 50 49 49 49 48 48 48 48 48 48 48 48 48 47 48 48 48 48 48 49 49 50 50 50 50 50
34 35 37 38 39 40 42 43 45 46 46 47 48 49 49 50 50 50 49 49 49 48 48 48 48 49 48 48 47 47 48 49 49 49 49 50 50 51 51 51 49 49 49
32 33 34 36 38 39 41 42 43 44 45 46 47 48 48 48 49 49 49 49 49 49 49 49 49 48 48 48 47 47 48 49 49 50 50 50 51 51 51 50 50 49 50
30 32 33 35 37 39 40 42 42 44 45 45 46 48 48 48 48 48 48 48 48 48 48 48 48 48 48 48 47 47 47 47 47 47 48 49 50 50 50 49 50 50 50
30 32 33 35 37 39 40 42 42 43 44 45 46 48 48 48 48 48 48 48 49 49 48 48 48 48 47 47 47 47 47 47 47 48 48 49 49 48 49 49 50 50 50
30 31 32 34 36 38 39 40 41 42 43 44 44 45 46 47 47 48 47 48 48 48 48 48 47 47 47 47 47 48 48 48 48 48 48 48 48 48 48 48 49 49 49
29 30 31 32 34 36 39 40 41 41 41 41 42 43 44 45 46 46 46 46 46 47 47 47 46 46 46 46 47 47 48 48 48 48 48 48 48 48 48 48 47 47 47
30 31 31 32 33 35 36 37 38 39 40 41 41 41 41 42 44 45 45 46 46 46 46 45 45 45 46 46 46 46 47 47 47 47 47 47 47 47 46 46 46 46 46
30 30 31 31 32 33 35 36 37 37 38 39 39 40 40 41 41 42 43 44 44 44 44 45 45 45 45 46 46 46 45 46 46 46 46 46 45 45 45 46 46 46 45
31 30 30 31 31 32 33 34 36 36 37 37 38 38 39 39 40 41 41 42 43 43 43 44 44 45 45 45 45 45 45 46 46 46 45 45 45 45 45 45 44 44 43
Wind_Direction
230 230 230 231 233 234 235 236 237 238 240 241 243 244 245 246 248 249 250 251 253 254 257 260 262 264 267 270 272 274 276 278 279 281 283 284 286 287 288 289 290 291 292
230 231 231 231 233 234 235 236 237 238 240 241 243 244 245 246 248 250 250 251 252 255 257 259 261 264 267 270 272 274 277 279 280 281 282 284 286 287 288 289 290 291 292
231 231 232 232 233 234 235 237 237 238 240 241 243 244 245 247 249 250 252 252 254 256 257 259 261 263 266 269 272 274 277 279 280 282 283 284 285 287 288 289 290 291 292
231 232 232 233 234 235 236 237 238 238 240 241 243 244 245 247 249 251 252 252 254 255 257 259 261 263 266 269 272 274 277 278 279 281 283 284 285 286 287 288 290 291 292
232 232 232 233 233 234 235 237 238 239 240 241 242 243 245 247 249 251 252 253 253 254 256 259 261 264 266 269 271 274 276 277 278 280 283 284 285 286 287 288 289 290 292
233 233 233 233 234 235 236 237 238 239 240 241 242 243 245 247 249 251 252 252 254 255 257 258 261 263 266 268 271 273 275 276 278 280 282 283 284 286 287 288 290 290 291
234 233 234 235 235 235 235 236 238 239 240 242 243 245 246 247 248 250 252 252 254 256 258 259 261 263 265 268 270 272 274 276 278 280 281 283 284 285 287 289 290 290 291
236 235 234 235 236 236 236 237 238 239 241 242 243 245 246 247 248 250 252 253 254 256 258 260 261 263 265 267 269 271 273 275 277 279 281 282 284 285 287 289 290 290 291
237 236 235 236 236 236 236 237 239 239 241 242 243 244 245 247 248 249 251 253 255 256 259 260 262 263 265 266 268 271 273 275 277 279 281 282 284 286 288 289 289 290 291
237 237 237 237 238 238 237 238 239 239 240 241 243 244 245 247 248 250 251 253 255 257 258 260 261 263 264 267 269 271 273 275 277 278 280 283 284 286 288 288 290 291 291
239 239 240 240 239 239 238 238 239 240 241 242 243 243 245 247 248 250 252 253 255 257 257 258 260 263 265 267 269 271 273 275 277 279 280 282 283 286 287 288 290 291 291
242 243 243 242 241 241 240 239 240 241 242 243 243 243 244 246 248 249 251 253 254 256 256 258 260 263 266 268 270 271 274 275 276 278 280 281 283 285 287 289 290 291 292
246 245 244 243 242 242 241 240 240 242 242 243 243 244 244 246 247 249 250 252 254 255 257 259 261 264 265 267 269 271 273 275 276 278 279 281 283 285 286 289 291 292 292
250 248 247 245 243 242 242 241 241 242 243 243 243 243 244 246 248 249 250 252 254 256 258 260 263 264 265 268 269 269 272 273 275 277 279 280 282 285 287 289 291 292 292
251 250 249 247 245 244 243 241 241 242 243 244 244 243 244 246 247 249 251 253 254 256 258 260 263 264 265 267 268 269 271 274 275 277 279 280 282 285 287 289 291 291 292
253 251 250 248 247 245 244 242 242 242 243 244 244 244 245 247 248 250 251 253 255 256 257 259 261 264 265 266 268 270 271 273 274 276 278 281 283 285 287 289 290 291 291
253 252 251 249 247 245 243 242 242 242 244 245 245 244 246 247 249 251 253 255 256 257 259 259 261 262 265 267 268 270 271 272 274 277 279 280 282 285 287 288 289 291 292
255 253 251 250 249 248 245 243 244 244 244 245 245 244 245 247 249 251 253 255 256 258 258 260 261 263 264 266 269 270 271 273 276 278 279 281 282 285 286 287 288 290 292
257 255 253 251 249 249 246 243 244 244 244 245 245 245 246 249 250 252 253 255 257 258 259 260 262 263 264 267 269 271 273 274 276 277 279 281 283 285 286 287 288 289 290
259 257 255 254 251 249 247 245 245 244 244 244 244 245 246 249 250 252 255 257 257 258 259 260 263 265 267 269 271 272 274 276 278 279 280 282 284 284 285 287 288 289 290
260 258 257 255 253 250 248 247 246 246 245 245 246 247 248 250 251 254 256 256 257 258 259 261 263 266 268 270 272 273 274 276 278 280 281 283 284 284 285 287 288 289 290
262 260 259 257 255 252 249 248 247 248 248 248 249 250 250 251 252 254 255 257 257 259 260 262 264 266 268 270 272 274 275 276 278 279 281 283 284 285 286 288 289 290 290
263 263 262 260 257 254 251 250 250 251 251 251 251 252 252 253 253 254 255 257 258 260 260 261 263 266 268 270 271 274 276 277 279 280 281 283 283 285 286 287 289 289 290
265 264 263 261 260 258 256 254 252 253 253 254 254 254 254 255 255 256 257 258 259 260 261 263 264 265 267 270 272 275 277 278 280 281 282 283 284 285 286 287 288 289 290
266 265 265 264 261 259 258 256 255 255 255 255 255 255 256 256 258 258 259 260 261 262 263 264 264 266 268 270 273 275 277 278 280 281 281 282 283 284 285 287 288 289 289
267 267 267 266 263 260 259 258 257 255 255 255 255 256 257 258 260 260 261 262 263 264 265 266 267 269 271 272 274 275 277 278 280 280 281 282 283 284 286 287 288 288 289